This is the latest recevied weather packets stored in our database for station/object N5DGC. If no packets are shown the sender has not sent any weather packets the latest 10 day(s).
| Time | Temp. | Humidity | Pressure | Rain* | Wind** | Luminosity | Snow |
|---|---|---|---|---|---|---|---|
| 1777947749 | 21.11° C | 20% | 1229.6 hPa | 0 mm | - | 0 W/m² | - |
| 1777947446 | 21.11° C | 20% | 1229.7 hPa | 0 mm | - | 0 W/m² | - |
| 1777947143 | 21.11° C | 20% | 1229.7 hPa | 0 mm | - | 0 W/m² | - |
| 1777946839 | 21.11° C | 20% | 1229.6 hPa | 0 mm | - | 0 W/m² | - |
| 1777946534 | 21.67° C | 20% | 1229.7 hPa | 0 mm | - | 0 W/m² | - |
| 1777946232 | 21.67° C | 20% | 1229.2 hPa | 0 mm | - | 1 W/m² | - |
| 1777945929 | 21.67° C | 19% | 1229.1 hPa | 0 mm | - | 1 W/m² | - |
| 1777945625 | 21.67° C | 20% | 1229.1 hPa | 0 mm | - | 2 W/m² | - |
| 1777945323 | 21.67° C | 19% | 1229.2 hPa | 0 mm | - | 3 W/m² | - |
| 1777945020 | 21.67° C | 19% | 1229.1 hPa | 0 mm | - | 4 W/m² | - |
| 1777944717 | 22.22° C | 19% | 1229.1 hPa | 0 mm | - | 6 W/m² | - |
| 1777944415 | 22.22° C | 19% | 1228.9 hPa | 0 mm | - | 7 W/m² | - |
| 1777944112 | 22.22° C | 19% | 1228.9 hPa | 0 mm | - | 8 W/m² | - |
| 1777943812 | 22.22° C | 19% | 1228.6 hPa | 0 mm | - | 13 W/m² | - |
| 1777943510 | 22.22° C | 19% | 1228.7 hPa | 0 mm | - | 17 W/m² | - |
| 1777943205 | 22.22° C | 19% | 1228.7 hPa | 0 mm | - | 17 W/m² | - |
| 1777942902 | 22.78° C | 19% | 1229 hPa | 0 mm | - | 21 W/m² | - |
| 1777942598 | 22.78° C | 18% | 1228.9 hPa | 0 mm | - | 23 W/m² | - |
| 1777942295 | 22.78° C | 18% | 1228.9 hPa | 0 mm | - | 27 W/m² | - |
| 1777941992 | 22.78° C | 18% | 1228.7 hPa | 0 mm | - | 36 W/m² | - |
| 1777941689 | 22.78° C | 18% | 1228.7 hPa | 0 mm | - | 43 W/m² | - |
| 1777941386 | 22.78° C | 18% | 1229 hPa | 0 mm | - | 40 W/m² | - |
| 1777941084 | 22.78° C | 18% | 1229 hPa | 0 mm | - | 49 W/m² | - |
| 1777940779 | 23.33° C | 17% | 1229.1 hPa | 0 mm | - | 68 W/m² | - |
| 1777940478 | 23.33° C | 17% | 1229.2 hPa | 0 mm | - | 73 W/m² | - |
* Rain latest hour (hover to see other rain measurements)
** Current wind speed in m/s (hover to see current wind gust speed)